Location: Trout Lake
(45.9980°N, 121.5270°W)
Time: 20:01:32
(UTC-08:00)

Cosmos 1812 Rocket - Pass Details

Date: 06 December 2023
Orbit: 602 x 630 km, 82.5° (Epoch: 22 February)

Event Time Altitude Azimuth Distance (km) Brightness Sun altitude
Rises 17:17:08 0° 173° (S) 2,844 7.2 -9.4°
Reaches altitude 10° 17:19:23 10° 167° (SSE) 1,949 6.2 -9.8°
Maximum altitude 17:23:31 48° 94° (E) 799 3.8 -10.5°
Drops below altitude 10° 17:27:44 10° 20° (NNE) 1,980 5.8 -11.2°
Enters shadow 17:29:42 - 15° (NNE) 2,760 6.5 -11.5°
